Year,Month,Day,Hour,Minute,Value (Times are PST for temperature in C)
2011,02,25,00,00,-6.50
2011,02,25,00,01,-6.50
2011,02,25,00,02,-6.50
2011,02,25,00,03,-6.50
2011,02,25,00,04,-6.50
2011,02,25,00,05,-6.50
2011,02,25,00,06,-6.50
2011,02,25,00,07,-6.50
2011,02,25,00,08,-6.50
2011,02,25,00,09,-6.60
2011,02,25,00,10,-6.60
2011,02,25,00,11,-6.60
2011,02,25,00,12,-6.60
2011,02,25,00,13,-6.60
2011,02,25,00,14,-6.60
2011,02,25,00,15,-6.60
2011,02,25,00,16,-6.60
2011,02,25,00,17,-6.60
2011,02,25,00,18,-6.60
2011,02,25,00,19,-6.60
2011,02,25,00,20,-6.60
2011,02,25,00,21,-6.60
2011,02,25,00,22,-6.60
2011,02,25,00,23,-6.70
2011,02,25,00,24,-6.70
2011,02,25,00,25,-6.70
2011,02,25,00,26,-6.80
2011,02,25,00,27,-6.80
2011,02,25,00,28,-6.80
2011,02,25,00,29,-6.80
2011,02,25,00,30,-6.80
2011,02,25,00,31,-6.80
2011,02,25,00,32,-6.80
2011,02,25,00,33,-6.80
2011,02,25,00,34,-6.90
2011,02,25,00,35,-6.90
2011,02,25,00,36,-7.00
2011,02,25,00,37,-7.00
2011,02,25,00,38,-7.10
2011,02,25,00,39,-7.10
2011,02,25,00,40,-7.10
2011,02,25,00,41,-7.20
2011,02,25,00,42,-7.20
2011,02,25,00,43,-7.20
2011,02,25,00,44,-7.20
2011,02,25,00,45,-7.20
2011,02,25,00,46,-7.30
2011,02,25,00,47,-7.30
2011,02,25,00,48,-7.30
2011,02,25,00,49,-7.30
2011,02,25,00,50,-7.40
2011,02,25,00,51,-7.40
2011,02,25,00,52,-7.40
2011,02,25,00,53,-7.50
2011,02,25,00,54,-7.50
2011,02,25,00,55,-7.60
2011,02,25,00,56,-7.60
2011,02,25,00,57,-7.60
2011,02,25,00,58,-7.60
2011,02,25,00,59,-7.60
2011,02,25,01,00,-7.60
2011,02,25,01,01,-7.60
2011,02,25,01,02,-7.70
2011,02,25,01,03,-7.70
2011,02,25,01,04,-7.70
2011,02,25,01,05,-7.70
2011,02,25,01,06,-7.80
2011,02,25,01,07,-7.80
2011,02,25,01,08,-7.80
2011,02,25,01,09,-7.80
2011,02,25,01,10,-7.80
2011,02,25,01,11,-7.80
2011,02,25,01,12,-7.90
2011,02,25,01,13,-7.90
2011,02,25,01,14,-7.90
2011,02,25,01,15,-7.90
2011,02,25,01,16,-8.00
2011,02,25,01,17,-8.00
2011,02,25,01,18,-8.00
2011,02,25,01,19,-8.10
2011,02,25,01,20,-8.10
2011,02,25,01,21,-8.10
2011,02,25,01,22,-8.10
2011,02,25,01,23,-8.10
2011,02,25,01,24,-8.10
2011,02,25,01,25,-8.10
2011,02,25,01,26,-8.10
2011,02,25,01,27,-8.20
2011,02,25,01,28,-8.20
2011,02,25,01,29,-8.20
2011,02,25,01,30,-8.20
2011,02,25,01,31,-8.20
2011,02,25,01,32,-8.30
2011,02,25,01,33,-8.30
2011,02,25,01,34,-8.30
2011,02,25,01,35,-8.30
2011,02,25,01,36,-8.30
2011,02,25,01,37,-8.30
2011,02,25,01,38,-8.30
2011,02,25,01,39,-8.30
2011,02,25,01,40,-8.30
2011,02,25,01,41,-8.40
2011,02,25,01,42,-8.40
2011,02,25,01,43,-8.40
2011,02,25,01,44,-8.40
2011,02,25,01,45,-8.50
2011,02,25,01,46,-8.50
2011,02,25,01,47,-8.50
2011,02,25,01,48,-8.50
2011,02,25,01,49,-8.60
2011,02,25,01,50,-8.60
2011,02,25,01,51,-8.60
2011,02,25,01,52,-8.60
2011,02,25,01,53,-8.60
2011,02,25,01,54,-8.60
2011,02,25,01,55,-8.60
2011,02,25,01,56,-8.60
2011,02,25,01,57,-8.60
2011,02,25,01,58,-8.60
2011,02,25,01,59,-8.60
2011,02,25,02,00,-8.60
2011,02,25,02,01,-8.60
2011,02,25,02,02,-8.70
2011,02,25,02,03,-8.70
2011,02,25,02,04,-8.70
2011,02,25,02,05,-8.70
2011,02,25,02,06,-8.70
2011,02,25,02,07,-8.70
2011,02,25,02,08,-8.70
2011,02,25,02,09,-8.70
2011,02,25,02,10,-8.80
2011,02,25,02,11,-8.70
2011,02,25,02,12,-8.70
2011,02,25,02,13,-8.70
2011,02,25,02,14,-8.70
2011,02,25,02,15,-8.70
2011,02,25,02,16,-8.70
2011,02,25,02,17,-8.70
2011,02,25,02,18,-8.70
2011,02,25,02,19,-8.80
2011,02,25,02,20,-8.80
2011,02,25,02,21,-8.80
2011,02,25,02,22,-8.80
2011,02,25,02,23,-8.80
2011,02,25,02,24,-8.80
2011,02,25,02,25,-8.90
2011,02,25,02,26,-8.90
2011,02,25,02,27,-8.90
2011,02,25,02,28,-8.90
2011,02,25,02,29,-9.00
2011,02,25,02,30,-9.00
2011,02,25,02,31,-9.00
2011,02,25,02,32,-9.10
2011,02,25,02,33,-9.10
2011,02,25,02,34,-9.10
2011,02,25,02,35,-9.10
2011,02,25,02,36,-9.20
2011,02,25,02,37,-9.20
2011,02,25,02,38,-9.20
2011,02,25,02,39,-9.20
2011,02,25,02,40,-9.20
2011,02,25,02,41,-9.30
2011,02,25,02,42,-9.30
2011,02,25,02,43,-9.30
2011,02,25,02,44,-9.30
2011,02,25,02,45,-9.30
2011,02,25,02,46,-9.30
2011,02,25,02,47,-9.30
2011,02,25,02,48,-9.30
2011,02,25,02,49,-9.30
2011,02,25,02,50,-9.30
2011,02,25,02,51,-9.30
2011,02,25,02,52,-9.30
2011,02,25,02,53,-9.40
2011,02,25,02,54,-9.40
2011,02,25,02,55,-9.40
2011,02,25,02,56,-9.40
2011,02,25,02,57,-9.40
2011,02,25,02,58,-9.40
2011,02,25,02,59,-9.40
2011,02,25,03,00,-9.40
2011,02,25,03,01,-9.40
2011,02,25,03,02,-9.40
2011,02,25,03,03,-9.50
2011,02,25,03,04,-9.50
2011,02,25,03,05,-9.50
2011,02,25,03,06,-9.50
2011,02,25,03,07,-9.50
2011,02,25,03,08,-9.60
2011,02,25,03,09,-9.60
2011,02,25,03,10,-9.60
2011,02,25,03,11,-9.70
2011,02,25,03,12,-9.70
2011,02,25,03,13,-9.70
2011,02,25,03,14,-9.70
2011,02,25,03,15,-9.70
2011,02,25,03,16,-9.70
2011,02,25,03,17,-9.70
2011,02,25,03,18,-9.80
2011,02,25,03,19,-9.80
2011,02,25,03,20,-9.80
2011,02,25,03,21,-9.80
2011,02,25,03,22,-9.80
2011,02,25,03,23,-9.70
2011,02,25,03,24,-9.70
2011,02,25,03,25,-9.70
2011,02,25,03,26,-9.70
2011,02,25,03,27,-9.70
2011,02,25,03,28,-9.70
2011,02,25,03,29,-9.70
2011,02,25,03,30,-9.70
2011,02,25,03,31,-9.70
2011,02,25,03,32,-9.70
2011,02,25,03,33,-9.70
2011,02,25,03,34,-9.70
2011,02,25,03,35,-9.70
2011,02,25,03,36,-9.70
2011,02,25,03,37,-9.70
2011,02,25,03,38,-9.70
2011,02,25,03,39,-9.70
2011,02,25,03,40,-9.70
2011,02,25,03,41,-9.70
2011,02,25,03,42,-9.70
2011,02,25,03,43,-9.70
2011,02,25,03,44,-9.60
2011,02,25,03,45,-9.60
2011,02,25,03,46,-9.60
2011,02,25,03,47,-9.60
2011,02,25,03,48,-9.60
2011,02,25,03,49,-9.50
2011,02,25,03,50,-9.50
2011,02,25,03,51,-9.50
2011,02,25,03,52,-9.50
2011,02,25,03,53,-9.50
2011,02,25,03,54,-9.50
2011,02,25,03,55,-9.50
2011,02,25,03,56,-9.50
2011,02,25,03,57,-9.40
2011,02,25,03,58,-9.40
2011,02,25,03,59,-9.40
2011,02,25,04,00,-9.40
2011,02,25,04,01,-9.30
2011,02,25,04,02,-9.30
2011,02,25,04,03,-9.30
2011,02,25,04,04,-9.30
2011,02,25,04,05,-9.20
2011,02,25,04,06,-9.20
2011,02,25,04,07,-9.20
2011,02,25,04,08,-9.20
2011,02,25,04,09,-9.10
2011,02,25,04,10,-9.10
2011,02,25,04,11,-9.10
2011,02,25,04,12,-9.10
2011,02,25,04,13,-9.10
2011,02,25,04,14,-9.00
2011,02,25,04,15,-9.00
2011,02,25,04,16,-9.00
2011,02,25,04,17,-9.00
2011,02,25,04,18,-8.90
2011,02,25,04,19,-8.90
2011,02,25,04,20,-8.90
2011,02,25,04,21,-8.90
2011,02,25,04,22,-8.90
2011,02,25,04,23,-8.90
2011,02,25,04,24,-8.80
2011,02,25,04,25,-8.80
2011,02,25,04,26,-8.80
2011,02,25,04,27,-8.80
2011,02,25,04,28,-8.80
2011,02,25,04,29,-8.70
2011,02,25,04,30,-8.70
2011,02,25,04,31,-8.70
2011,02,25,04,32,-8.70
2011,02,25,04,33,-8.70
2011,02,25,04,34,-8.70
2011,02,25,04,35,-8.70
2011,02,25,04,36,-8.70
2011,02,25,04,37,-8.70
2011,02,25,04,38,-8.70
2011,02,25,04,39,-8.70
2011,02,25,04,40,-8.70
2011,02,25,04,41,-8.70
2011,02,25,04,42,-8.70
2011,02,25,04,43,-8.70
2011,02,25,04,44,-8.70
2011,02,25,04,45,-8.70
2011,02,25,04,46,-8.70
2011,02,25,04,47,-8.70
2011,02,25,04,48,-8.70
2011,02,25,04,49,-8.60
2011,02,25,04,50,-8.60
2011,02,25,04,51,-8.60
2011,02,25,04,52,-8.60
2011,02,25,04,53,-8.60
2011,02,25,04,54,-8.60
2011,02,25,04,55,-8.60
2011,02,25,04,56,-8.60
2011,02,25,04,57,-8.60
2011,02,25,04,58,-8.60
2011,02,25,04,59,-8.60
2011,02,25,05,00,-8.50
2011,02,25,05,01,-8.50
2011,02,25,05,02,-8.50
2011,02,25,05,03,-8.50
2011,02,25,05,04,-8.50
2011,02,25,05,05,-8.50
2011,02,25,05,06,-8.50
2011,02,25,05,07,-8.50
2011,02,25,05,08,-8.40
2011,02,25,05,09,-8.40
2011,02,25,05,10,-8.40
2011,02,25,05,11,-8.40
2011,02,25,05,12,-8.40
2011,02,25,05,13,-8.40
2011,02,25,05,14,-8.40
2011,02,25,05,15,-8.40
2011,02,25,05,16,-8.40
2011,02,25,05,17,-8.40
2011,02,25,05,18,-8.40
2011,02,25,05,19,-8.30
2011,02,25,05,20,-8.30
2011,02,25,05,21,-8.30
2011,02,25,05,22,-8.30
2011,02,25,05,23,-8.30
2011,02,25,05,24,-8.30
2011,02,25,05,25,-8.30
2011,02,25,05,26,-8.30
2011,02,25,05,27,-8.30
2011,02,25,05,28,-8.30
2011,02,25,05,29,-8.30
2011,02,25,05,30,-8.30
2011,02,25,05,31,-8.30
2011,02,25,05,32,-8.30
2011,02,25,05,33,-8.30
2011,02,25,05,34,-8.30
2011,02,25,05,35,-8.30
2011,02,25,05,36,-8.30
2011,02,25,05,37,-8.30
2011,02,25,05,38,-8.30
2011,02,25,05,39,-8.30
2011,02,25,05,40,-8.30
2011,02,25,05,41,-8.30
2011,02,25,05,42,-8.30
2011,02,25,05,43,-8.30
2011,02,25,05,44,-8.30
2011,02,25,05,45,-8.30
2011,02,25,05,46,-8.40
2011,02,25,05,47,-8.40
2011,02,25,05,48,-8.40
2011,02,25,05,49,-8.40
2011,02,25,05,50,-8.40
2011,02,25,05,51,-8.40
2011,02,25,05,52,-8.40
2011,02,25,05,53,-8.40
2011,02,25,05,54,-8.40
2011,02,25,05,55,-8.40
2011,02,25,05,56,-8.40
2011,02,25,05,57,-8.50
2011,02,25,05,58,-8.50
2011,02,25,05,59,-8.50
2011,02,25,06,00,-8.60
2011,02,25,06,01,-8.60
2011,02,25,06,02,-8.60
2011,02,25,06,03,-8.60
2011,02,25,06,04,-8.60
2011,02,25,06,05,-8.60
2011,02,25,06,06,-8.70
2011,02,25,06,07,-8.70
2011,02,25,06,08,-8.70
2011,02,25,06,09,-8.70
2011,02,25,06,10,-8.80
2011,02,25,06,11,-8.80
2011,02,25,06,12,-8.80
2011,02,25,06,13,-8.80
2011,02,25,06,14,-8.80
2011,02,25,06,15,-8.90
2011,02,25,06,16,-8.90
2011,02,25,06,17,-8.90
2011,02,25,06,18,-8.90
2011,02,25,06,19,-8.90
2011,02,25,06,20,-8.90
2011,02,25,06,21,-9.00
2011,02,25,06,22,-9.00
2011,02,25,06,23,-9.00
2011,02,25,06,24,-9.10
2011,02,25,06,25,-9.10
2011,02,25,06,26,-9.10
2011,02,25,06,27,-9.10
2011,02,25,06,28,-9.20
2011,02,25,06,29,-9.20
2011,02,25,06,30,-9.20
2011,02,25,06,31,-9.20
2011,02,25,06,32,-9.20
2011,02,25,06,33,-9.20
2011,02,25,06,34,-9.20
2011,02,25,06,35,-9.30
2011,02,25,06,36,-9.30
2011,02,25,06,37,-9.30
2011,02,25,06,38,-9.30
2011,02,25,06,39,-9.30
2011,02,25,06,40,-9.30
2011,02,25,06,41,-9.30
2011,02,25,06,42,-9.30
2011,02,25,06,43,-9.30
2011,02,25,06,44,-9.30
2011,02,25,06,45,-9.30
2011,02,25,06,46,-9.40
2011,02,25,06,47,-9.40
2011,02,25,06,48,-9.40
2011,02,25,06,49,-9.40
2011,02,25,06,50,-9.40
2011,02,25,06,51,-9.40
2011,02,25,06,52,-9.40
2011,02,25,06,53,-9.40
2011,02,25,06,54,-9.40
2011,02,25,06,55,-9.40
2011,02,25,06,56,-9.40
2011,02,25,06,57,-9.40
2011,02,25,06,58,-9.40
2011,02,25,06,59,-9.40
2011,02,25,07,00,-9.40
2011,02,25,07,01,-9.40
2011,02,25,07,02,-9.40
2011,02,25,07,03,-9.40
2011,02,25,07,04,-9.40
2011,02,25,07,05,-9.40
2011,02,25,07,06,-9.40
2011,02,25,07,07,-9.40
2011,02,25,07,08,-9.40
2011,02,25,07,09,-9.40
2011,02,25,07,10,-9.40
2011,02,25,07,11,-9.40
2011,02,25,07,12,-9.40
2011,02,25,07,13,-9.40
2011,02,25,07,14,-9.40
2011,02,25,07,15,-9.40
2011,02,25,07,16,-9.40
2011,02,25,07,17,-9.30
2011,02,25,07,18,-9.30
2011,02,25,07,19,-9.30
2011,02,25,07,20,-9.30
2011,02,25,07,21,-9.30
2011,02,25,07,22,-9.30
2011,02,25,07,23,-9.20
2011,02,25,07,24,-9.20
2011,02,25,07,25,-9.20
2011,02,25,07,26,-9.20
2011,02,25,07,27,-9.20
2011,02,25,07,28,-9.20
2011,02,25,07,29,-9.10
2011,02,25,07,30,-9.10
2011,02,25,07,31,-9.10
2011,02,25,07,32,-9.10
2011,02,25,07,33,-9.00
2011,02,25,07,34,-9.00
2011,02,25,07,35,-8.90
2011,02,25,07,36,-8.90
2011,02,25,07,37,-8.80
2011,02,25,07,38,-8.80
2011,02,25,07,39,-8.80
2011,02,25,07,40,-8.80
2011,02,25,07,41,-8.70
2011,02,25,07,42,-8.70
2011,02,25,07,43,-8.70
2011,02,25,07,44,-8.60
2011,02,25,07,45,-8.60
2011,02,25,07,46,-8.50
2011,02,25,07,47,-8.50
2011,02,25,07,48,-8.40
2011,02,25,07,49,-8.40
2011,02,25,07,50,-8.30
2011,02,25,07,51,-8.30
2011,02,25,07,52,-8.30
2011,02,25,07,53,-8.20
2011,02,25,07,54,-8.10
2011,02,25,07,55,-8.10
2011,02,25,07,56,-8.10
2011,02,25,07,57,-8.00
2011,02,25,07,58,-7.90
2011,02,25,07,59,-7.90
2011,02,25,08,00,-7.90
2011,02,25,08,01,-7.80
2011,02,25,08,02,-7.80
2011,02,25,08,03,-7.70
2011,02,25,08,04,-7.70
2011,02,25,08,05,-7.60
2011,02,25,08,06,-7.60
2011,02,25,08,07,-7.50
2011,02,25,08,08,-7.50
2011,02,25,08,09,-7.40
2011,02,25,08,10,-7.40
2011,02,25,08,11,-7.40
2011,02,25,08,12,-7.30
2011,02,25,08,13,-7.30
2011,02,25,08,14,-7.20
2011,02,25,08,15,-7.20
2011,02,25,08,16,-7.10
2011,02,25,08,17,-7.10
2011,02,25,08,18,-7.00
2011,02,25,08,19,-7.00
2011,02,25,08,20,-6.90
2011,02,25,08,21,-6.80
2011,02,25,08,22,-6.80
2011,02,25,08,23,-6.80
2011,02,25,08,24,-6.80
2011,02,25,08,25,-6.70
2011,02,25,08,26,-6.60
2011,02,25,08,27,-6.50
2011,02,25,08,28,-6.40
2011,02,25,08,29,-6.30
2011,02,25,08,30,-6.30
2011,02,25,08,31,-6.20
2011,02,25,08,32,-6.10
2011,02,25,08,33,-6.10
2011,02,25,08,34,-6.00
2011,02,25,08,35,-5.90
2011,02,25,08,36,-5.90
2011,02,25,08,37,-5.80
2011,02,25,08,38,-5.80
2011,02,25,08,39,-5.70
2011,02,25,08,40,-5.70
2011,02,25,08,41,-5.60
2011,02,25,08,42,-5.60
2011,02,25,08,43,-5.60
2011,02,25,08,44,-5.60
2011,02,25,08,45,-5.60
2011,02,25,08,46,-5.60
2011,02,25,08,47,-5.60
2011,02,25,08,48,-5.60
2011,02,25,08,49,-5.60
2011,02,25,08,50,-5.60
2011,02,25,08,51,-5.60
2011,02,25,08,52,-5.60
2011,02,25,08,53,-5.50
2011,02,25,08,54,-5.50
2011,02,25,08,55,-5.50
2011,02,25,08,56,-5.50
2011,02,25,08,57,-5.50
2011,02,25,08,58,-5.40
2011,02,25,08,59,-5.40
2011,02,25,09,00,-5.40
2011,02,25,09,01,-5.30
2011,02,25,09,02,-5.30
2011,02,25,09,03,-5.20
2011,02,25,09,04,-5.20
2011,02,25,09,05,-5.30
2011,02,25,09,06,-5.30
2011,02,25,09,07,-5.30
2011,02,25,09,08,-5.30
2011,02,25,09,09,-5.20
2011,02,25,09,10,-5.20
2011,02,25,09,11,-5.20
2011,02,25,09,12,-5.10
2011,02,25,09,13,-5.10
2011,02,25,09,14,-5.10
2011,02,25,09,15,-5.10
2011,02,25,09,16,-5.10
2011,02,25,09,17,-5.10
2011,02,25,09,18,-5.10
2011,02,25,09,19,-5.10
2011,02,25,09,20,-5.00
2011,02,25,09,21,-5.00
2011,02,25,09,22,-4.90
2011,02,25,09,23,-4.90
2011,02,25,09,24,-5.00
2011,02,25,09,25,-5.10
2011,02,25,09,26,-5.10
2011,02,25,09,27,-5.10
2011,02,25,09,28,-5.10
2011,02,25,09,29,-5.10
2011,02,25,09,30,-5.10
2011,02,25,09,31,-5.10
2011,02,25,09,32,-5.00
2011,02,25,09,33,-5.00
2011,02,25,09,34,-4.90
2011,02,25,09,35,-4.90
2011,02,25,09,36,-4.90
2011,02,25,09,37,-5.00
2011,02,25,09,38,-5.00
2011,02,25,09,39,-5.10
2011,02,25,09,40,-5.10
2011,02,25,09,41,-5.10
2011,02,25,09,42,-5.00
2011,02,25,09,43,-5.00
2011,02,25,09,44,-4.90
2011,02,25,09,45,-4.90
2011,02,25,09,46,-4.80
2011,02,25,09,47,-4.80
2011,02,25,09,48,-4.80
2011,02,25,09,49,-4.80
2011,02,25,09,50,-4.80
2011,02,25,09,51,-4.90
2011,02,25,09,52,-4.90
2011,02,25,09,53,-4.80
2011,02,25,09,54,-4.80
2011,02,25,09,55,-4.80
2011,02,25,09,56,-4.70
2011,02,25,09,57,-4.70
2011,02,25,09,58,-4.70
2011,02,25,09,59,-4.80
2011,02,25,10,00,-4.80
2011,02,25,10,01,-4.80
2011,02,25,10,02,-4.80
2011,02,25,10,03,-4.70
2011,02,25,10,04,-4.70
2011,02,25,10,05,-4.60
2011,02,25,10,06,-4.60
2011,02,25,10,07,-4.60
2011,02,25,10,08,-4.60
2011,02,25,10,09,-4.60
2011,02,25,10,10,-4.60
2011,02,25,10,11,-4.50
2011,02,25,10,12,-4.50
2011,02,25,10,13,-4.40
2011,02,25,10,14,-4.40
2011,02,25,10,15,-4.40
2011,02,25,10,16,-4.40
2011,02,25,10,17,-4.40
2011,02,25,10,18,-4.40
2011,02,25,10,19,-4.30
2011,02,25,10,20,-4.30
2011,02,25,10,21,-4.30
2011,02,25,10,22,-4.30
2011,02,25,10,23,-4.30
2011,02,25,10,24,-4.40
2011,02,25,10,25,-4.30
2011,02,25,10,26,-4.30
2011,02,25,10,27,-4.30
2011,02,25,10,28,-4.30
2011,02,25,10,29,-4.30
2011,02,25,10,30,-4.30
2011,02,25,10,31,-4.30
2011,02,25,10,32,-4.40
2011,02,25,10,33,-4.40
2011,02,25,10,34,-4.40
2011,02,25,10,35,-4.40
2011,02,25,10,36,-4.40
2011,02,25,10,37,-4.40
2011,02,25,10,38,-4.30
2011,02,25,10,39,-4.30
2011,02,25,10,40,-4.20
2011,02,25,10,41,-4.10
2011,02,25,10,42,-4.00
2011,02,25,10,43,-4.00
2011,02,25,10,44,-3.90
2011,02,25,10,45,-3.90
2011,02,25,10,46,-3.90
2011,02,25,10,47,-3.90
2011,02,25,10,48,-3.90
2011,02,25,10,49,-3.90
2011,02,25,10,50,-3.90
2011,02,25,10,51,-3.90
2011,02,25,10,52,-3.90
2011,02,25,10,53,-3.90
2011,02,25,10,54,-3.80
2011,02,25,10,55,-3.70
2011,02,25,10,56,-3.70
2011,02,25,10,57,-3.70
2011,02,25,10,58,-3.80
2011,02,25,10,59,-3.80
2011,02,25,11,00,-3.90
2011,02,25,11,01,-3.80
2011,02,25,11,02,-3.80
2011,02,25,11,03,-3.90
2011,02,25,11,04,-3.90
2011,02,25,11,05,-3.90
2011,02,25,11,06,-3.90
2011,02,25,11,07,-3.80
2011,02,25,11,08,-3.60
2011,02,25,11,09,-3.50
2011,02,25,11,10,-3.40
2011,02,25,11,11,-3.40
2011,02,25,11,12,-3.30
2011,02,25,11,13,-3.40
2011,02,25,11,14,-3.50
2011,02,25,11,15,-3.50
2011,02,25,11,16,-3.50
2011,02,25,11,17,-3.50
2011,02,25,11,18,-3.50
2011,02,25,11,19,-3.40
2011,02,25,11,20,-3.40
2011,02,25,11,21,-3.40
2011,02,25,11,22,-3.50
2011,02,25,11,23,-3.50
2011,02,25,11,24,-3.50
2011,02,25,11,25,-3.40
2011,02,25,11,26,-3.40
2011,02,25,11,27,-3.30
2011,02,25,11,28,-3.20
2011,02,25,11,29,-3.20
2011,02,25,11,30,-3.20
2011,02,25,11,31,-3.20
2011,02,25,11,32,-3.30
2011,02,25,11,33,-3.40
2011,02,25,11,34,-3.40
2011,02,25,11,35,-3.40
2011,02,25,11,36,-3.40
2011,02,25,11,37,-3.40
2011,02,25,11,38,-3.30
2011,02,25,11,39,-3.40
2011,02,25,11,40,-3.40
2011,02,25,11,41,-3.30
2011,02,25,11,42,-3.30
2011,02,25,11,43,-3.30
2011,02,25,11,44,-3.30
2011,02,25,11,45,-3.30
2011,02,25,11,46,-3.40
2011,02,25,11,47,-3.40
2011,02,25,11,48,-3.40
2011,02,25,11,49,-3.40
2011,02,25,11,50,-3.40
2011,02,25,11,51,-3.30
2011,02,25,11,52,-3.30
2011,02,25,11,53,-3.30
2011,02,25,11,54,-3.30
2011,02,25,11,55,-3.20
2011,02,25,11,56,-3.20
2011,02,25,11,57,-3.20
2011,02,25,11,58,-3.10
2011,02,25,11,59,-3.10
2011,02,25,12,00,-3.10
2011,02,25,12,01,-3.10
2011,02,25,12,02,-3.10
2011,02,25,12,03,-3.00
2011,02,25,12,04,-3.00
2011,02,25,12,05,-2.90
2011,02,25,12,06,-2.80
2011,02,25,12,07,-2.80
2011,02,25,12,08,-2.80
2011,02,25,12,09,-2.80
2011,02,25,12,10,-2.80
2011,02,25,12,11,-2.80
2011,02,25,12,12,-2.80
2011,02,25,12,13,-2.80
2011,02,25,12,14,-2.80
2011,02,25,12,15,-2.80
2011,02,25,12,16,-2.70
2011,02,25,12,17,-2.60
2011,02,25,12,18,-2.60
2011,02,25,12,19,-2.60
2011,02,25,12,20,-2.60
2011,02,25,12,21,-2.60
2011,02,25,12,22,-2.60
2011,02,25,12,23,-2.60
2011,02,25,12,24,-2.60
2011,02,25,12,25,-2.70
2011,02,25,12,26,-2.70
2011,02,25,12,27,-2.70
2011,02,25,12,28,-2.60
2011,02,25,12,29,-2.60
2011,02,25,12,30,-2.50
2011,02,25,12,31,-2.40
2011,02,25,12,32,-2.30
2011,02,25,12,33,-2.20
2011,02,25,12,34,-2.10
2011,02,25,12,35,-2.10
2011,02,25,12,36,-2.20
2011,02,25,12,37,-2.20
2011,02,25,12,38,-2.20
2011,02,25,12,39,-2.20
2011,02,25,12,40,-2.20
2011,02,25,12,41,-2.20
2011,02,25,12,42,-2.30
2011,02,25,12,43,-2.30
2011,02,25,12,44,-2.30
2011,02,25,12,45,-2.30
2011,02,25,12,46,-2.30
2011,02,25,12,47,-2.30
2011,02,25,12,48,-2.30
2011,02,25,12,49,-2.20
2011,02,25,12,50,-2.20
2011,02,25,12,51,-2.30
2011,02,25,12,52,-2.30
2011,02,25,12,53,-2.30
2011,02,25,12,54,-2.30
2011,02,25,12,55,-2.30
2011,02,25,12,56,-2.30
2011,02,25,12,57,-2.30
2011,02,25,12,58,-2.30
2011,02,25,12,59,-2.30
2011,02,25,13,00,-2.30
2011,02,25,13,01,-2.20
2011,02,25,13,02,-2.20
2011,02,25,13,03,-2.10
2011,02,25,13,04,-2.10
2011,02,25,13,05,-2.10
2011,02,25,13,06,-2.00
2011,02,25,13,07,-1.90
2011,02,25,13,08,-1.80
2011,02,25,13,09,-1.80
2011,02,25,13,10,-1.60
2011,02,25,13,11,-1.50
2011,02,25,13,12,-1.40
2011,02,25,13,13,-1.40
2011,02,25,13,14,-1.50
2011,02,25,13,15,-1.50
2011,02,25,13,16,-1.60
2011,02,25,13,17,-1.70
2011,02,25,13,18,-1.80
2011,02,25,13,19,-1.90
2011,02,25,13,20,-2.00
2011,02,25,13,21,-2.10
2011,02,25,13,22,-2.10
2011,02,25,13,23,-2.10
2011,02,25,13,24,-2.10
2011,02,25,13,25,-2.10
2011,02,25,13,26,-2.10
2011,02,25,13,27,-2.10
2011,02,25,13,28,-2.20
2011,02,25,13,29,-2.10
2011,02,25,13,30,-2.00
2011,02,25,13,31,-2.00
2011,02,25,13,32,-1.90
2011,02,25,13,33,-2.00
2011,02,25,13,34,-2.00
2011,02,25,13,35,-1.90
2011,02,25,13,36,-1.90
2011,02,25,13,37,-1.80
2011,02,25,13,38,-1.70
2011,02,25,13,39,-1.70
2011,02,25,13,40,-1.70
2011,02,25,13,41,-1.70
2011,02,25,13,42,-1.80
2011,02,25,13,43,-1.80
2011,02,25,13,44,-1.90
2011,02,25,13,45,-1.90
2011,02,25,13,46,-1.80
2011,02,25,13,47,-1.80
2011,02,25,13,48,-1.80
2011,02,25,13,49,-1.70
2011,02,25,13,50,-1.60
2011,02,25,13,51,-1.50
2011,02,25,13,52,-1.60
2011,02,25,13,53,-1.70
2011,02,25,13,54,-1.70
2011,02,25,13,55,-1.70
2011,02,25,13,56,-1.70
2011,02,25,13,57,-1.60
2011,02,25,13,58,-1.60
2011,02,25,13,59,-1.50
2011,02,25,14,00,-1.50
2011,02,25,14,01,-1.50
2011,02,25,14,02,-1.60
2011,02,25,14,03,-1.70
2011,02,25,14,04,-1.70
2011,02,25,14,05,-1.70
2011,02,25,14,06,-1.70
2011,02,25,14,07,-1.80
2011,02,25,14,08,-1.80
2011,02,25,14,09,-1.80
2011,02,25,14,10,-1.70
2011,02,25,14,11,-1.70
2011,02,25,14,12,-1.70
2011,02,25,14,13,-1.80
2011,02,25,14,14,-1.80
2011,02,25,14,15,-1.70
2011,02,25,14,16,-1.70
2011,02,25,14,17,-1.70
2011,02,25,14,18,-1.60
2011,02,25,14,19,-1.70
2011,02,25,14,20,-1.60
2011,02,25,14,21,-1.60
2011,02,25,14,22,-1.50
2011,02,25,14,23,-1.40
2011,02,25,14,24,-1.30
2011,02,25,14,25,-1.30
2011,02,25,14,26,-1.30
2011,02,25,14,27,-1.40
2011,02,25,14,28,-1.50
2011,02,25,14,29,-1.50
2011,02,25,14,30,-1.50
2011,02,25,14,31,-1.40
2011,02,25,14,32,-1.40
2011,02,25,14,33,-1.50
2011,02,25,14,34,-1.50
2011,02,25,14,35,-1.40
2011,02,25,14,36,-1.40
2011,02,25,14,37,-1.30
2011,02,25,14,38,-1.30
2011,02,25,14,39,-1.30
2011,02,25,14,40,-1.30
2011,02,25,14,41,-1.20
2011,02,25,14,42,-1.30
2011,02,25,14,43,-1.30
2011,02,25,14,44,-1.30
2011,02,25,14,45,-1.30
2011,02,25,14,46,-1.20
2011,02,25,14,47,-1.20
2011,02,25,14,48,-1.10
2011,02,25,14,49,-1.10
2011,02,25,14,50,-1.10
2011,02,25,14,51,-1.10
2011,02,25,14,52,-1.10
2011,02,25,14,53,-1.00
2011,02,25,14,54,-1.00
2011,02,25,14,55,-0.90
2011,02,25,14,56,-0.80
2011,02,25,14,57,-0.80
2011,02,25,14,58,-0.90
2011,02,25,14,59,-0.90
2011,02,25,15,00,-0.80
2011,02,25,15,01,-0.80
2011,02,25,15,02,-0.80
2011,02,25,15,03,-0.80
2011,02,25,15,04,-0.80
2011,02,25,15,05,-0.80
2011,02,25,15,06,-0.80
2011,02,25,15,07,-0.80
2011,02,25,15,08,-0.80
2011,02,25,15,09,-0.80
2011,02,25,15,10,-0.70
2011,02,25,15,11,-0.70
2011,02,25,15,12,-0.70
2011,02,25,15,13,-0.60
2011,02,25,15,14,-0.60
2011,02,25,15,15,-0.60
2011,02,25,15,16,-0.60
2011,02,25,15,17,-0.70
2011,02,25,15,18,-0.80
2011,02,25,15,19,-0.90
2011,02,25,15,20,-0.90
2011,02,25,15,21,-1.00
2011,02,25,15,22,-1.00
2011,02,25,15,23,-1.00
2011,02,25,15,24,-1.10
2011,02,25,15,25,-1.10
2011,02,25,15,26,-1.20
2011,02,25,15,27,-1.20
2011,02,25,15,28,-1.20
2011,02,25,15,29,-1.20
2011,02,25,15,30,-1.20
2011,02,25,15,31,-1.20
2011,02,25,15,32,-1.20
2011,02,25,15,33,-1.20
2011,02,25,15,34,-1.30
2011,02,25,15,35,-1.30
2011,02,25,15,36,-1.40
2011,02,25,15,37,-1.40
2011,02,25,15,38,-1.40
2011,02,25,15,39,-1.30
2011,02,25,15,40,-1.30
2011,02,25,15,41,-1.30
2011,02,25,15,42,-1.30
2011,02,25,15,43,-1.30
2011,02,25,15,44,-1.30
2011,02,25,15,45,-1.30
2011,02,25,15,46,-1.20
2011,02,25,15,47,-1.20
2011,02,25,15,48,-1.10
2011,02,25,15,49,-1.10
2011,02,25,15,50,-1.00
2011,02,25,15,51,-1.00
2011,02,25,15,52,-1.00
2011,02,25,15,53,-0.90
2011,02,25,15,54,-0.90
2011,02,25,15,55,-1.00
2011,02,25,15,56,-1.00
2011,02,25,15,57,-1.10
2011,02,25,15,58,-1.10
2011,02,25,15,59,-1.10
2011,02,25,16,00,-1.10
2011,02,25,16,01,-1.10
2011,02,25,16,02,-1.20
2011,02,25,16,03,-1.20
2011,02,25,16,04,-1.20
2011,02,25,16,05,-1.20
2011,02,25,16,06,-1.20
2011,02,25,16,07,-1.20
2011,02,25,16,08,-1.20
2011,02,25,16,09,-1.20
2011,02,25,16,10,-1.20
2011,02,25,16,11,-1.20
2011,02,25,16,12,-1.10
2011,02,25,16,13,-1.10
2011,02,25,16,14,-1.10
2011,02,25,16,15,-1.10
2011,02,25,16,16,-1.00
2011,02,25,16,17,-1.00
2011,02,25,16,18,-1.00
2011,02,25,16,19,-1.00
2011,02,25,16,20,-1.00
2011,02,25,16,21,-1.00
2011,02,25,16,22,-1.00
2011,02,25,16,23,-1.10
2011,02,25,16,24,-1.10
2011,02,25,16,25,-1.10
2011,02,25,16,26,-1.10
2011,02,25,16,27,-1.10
2011,02,25,16,28,-1.10
2011,02,25,16,29,-1.10
2011,02,25,16,30,-1.20
2011,02,25,16,31,-1.20
2011,02,25,16,32,-1.20
2011,02,25,16,33,-1.20
2011,02,25,16,34,-1.20
2011,02,25,16,35,-1.20
2011,02,25,16,36,-1.30
2011,02,25,16,37,-1.30
2011,02,25,16,38,-1.30
2011,02,25,16,39,-1.30
2011,02,25,16,40,-1.30
2011,02,25,16,41,-1.30
2011,02,25,16,42,-1.30
2011,02,25,16,43,-1.30
2011,02,25,16,44,-1.30
2011,02,25,16,45,-1.30
2011,02,25,16,46,-1.30
2011,02,25,16,47,-1.30
2011,02,25,16,48,-1.40
2011,02,25,16,49,-1.40
2011,02,25,16,50,-1.40
2011,02,25,16,51,-1.40
2011,02,25,16,52,-1.40
2011,02,25,16,53,-1.40
2011,02,25,16,54,-1.40
2011,02,25,16,55,-1.50
2011,02,25,16,56,-1.50
2011,02,25,16,57,-1.50
2011,02,25,16,58,-1.50
2011,02,25,16,59,-1.50
2011,02,25,17,00,-1.60
2011,02,25,17,01,-1.60
2011,02,25,17,02,-1.60
2011,02,25,17,03,-1.70
2011,02,25,17,04,-1.70
2011,02,25,17,05,-1.80
2011,02,25,17,06,-1.80
2011,02,25,17,07,-1.80
2011,02,25,17,08,-1.80
2011,02,25,17,09,-1.80
2011,02,25,17,10,-1.90
2011,02,25,17,11,-1.90
2011,02,25,17,12,-1.90
2011,02,25,17,13,-1.90
2011,02,25,17,14,-2.00
2011,02,25,17,15,-2.00
2011,02,25,17,16,-2.00
2011,02,25,17,17,-2.00
2011,02,25,17,18,-2.10
2011,02,25,17,19,-2.10